Notices

What's New in latest Release from April 7th, 2021:

- Updated Glossary, including Speed of Maximum Gust, and Total Hourly Precipitation

- Updated national and regional climate services offices contacts and prices information

- Addition of station inventory lists for 1981-2010, 1971-2000, and 1961-1990 Normals.

If you haven't already, please take our survey and provide feedback about our website: https://eccc.sondage-survey.ca/f/LanguageSelection.aspx?s=442ca660-fcf1-47c0-95a9-59707d6fd709

Hourly Data Report for June 20, 2020

TRENTON A
ONTARIO
Current Station Operator: DND

44°07'00.000" N
77°32'00.000" W
86.30 m
6158875
71621
YTR

Download Data

Hourly Data (June 2020)
Hourly Data Report for June 20, 2020
TIME
LST
Temp Definition
°C
Dew Point Definition
°C
Rel Hum Definition
%
Precip. Amount Definition
mm

Wind Dir Definition
10's deg

Wind Spd Definition
km/h
Visibility Definition
km
Stn Press Definition
kPa
Hmdx Definition


Wind Chill Definition


Weather Definition


00:00 17.6 16.7 94     0 24.1 100.60     Clear
01:00 16.7 16.1 96   2 5 24.1 100.58     Clear
02:00 17.0 16.2 95     0 24.1 100.58     Mainly Clear
03:00 16.2 15.5 96   3 5 24.1 100.58     Mainly Clear
04:00 16.1 15.5 96     0 24.1 100.56     Mainly Clear
05:00 15.8 15.2 96   7 4 24.1 100.57     Mainly Clear
06:00 19.5 17.1 86     0 24.1 100.60     Mainly Clear
07:00 21.7 17.7 78     0 24.1 100.65 27   Mainly Clear
08:00 23.1 17.7 72   20 8 24.1 100.66 29   Mainly Clear
09:00 24.4 19.1 72   20 15 24.1 100.66 31   Mainly Clear
10:00 25.2 19.1 69   22 9 24.1 100.64 32   Mainly Clear
11:00 26.6 19.0 63   22 13 24.1 100.61 33   Clear
12:00 27.8 17.8 55   21 13 24.1 100.59 34   Clear
13:00 27.4 18.5 58   21 15 24.1 100.57 34   Clear
14:00 27.7 17.5 54   21 18 24.1 100.53 33   Mainly Clear
15:00 27.4 17.0 53   21 15 24.1 100.48 33   Mainly Clear
16:00 28.0 18.3 56   21 13 24.1 100.41 34   Mainly Clear
17:00 27.5 19.3 61   20 11 24.1 100.35 35   Mainly Clear
18:00 25.8 19.8 70   20 13 19.3 100.35 33   Mainly Clear
19:00 25.3 19.3 69   21 9 19.3 100.35 32   Mainly Clear
20:00 23.4 19.8 80   20 11 19.3 100.36 31   Mainly Clear
21:00 22.4 20.3 88   21 5 24.1 100.38 30   Mainly Clear
22:00 22.4 19.5 84   21 8 24.1 100.40 30   Mainly Clear
23:00 21.7 20.2 91   18 4 11.3 100.41 29   Mainly Clear

Notes on Data Quality.

Legend

  • E = Estimated
  • M = Missing
  • NA = Not Available*
  • [empty] = Indicates an unobserved value
Date modified: